This is the latest recevied weather packets stored in our database for station/object HOWARD. If no packets are shown the sender has not sent any weather packets the latest 10 day(s).
| Time | Temp. | Humidity | Pressure | Rain* | Wind** | Luminosity | Snow |
|---|---|---|---|---|---|---|---|
| 1788390316 | 8.89° C | 55% | 1007.8 hPa | 0 mm | - | - | - |
| 1788390285 | 8.89° C | 55% | 1007.8 hPa | 0 mm | - | - | - |
| 1788389684 | 8.89° C | 54% | 1007.9 hPa | 0 mm | - | - | - |
| 1788389084 | 8.33° C | 54% | 1007.8 hPa | 0 mm | - | - | - |
| 1788388484 | 8.33° C | 52% | 1007.8 hPa | 0 mm | - | - | - |
| 1788387884 | 8.89° C | 53% | 1008.6 hPa | 0 mm | - | - | - |
| 1788387284 | 8.33° C | 55% | 1008.5 hPa | 0 mm | - | - | - |
| 1788386909 | 7.78° C | 56% | 1008.5 hPa | 0 mm | - | - | - |
| 1788386684 | 7.78° C | 56% | 1008.5 hPa | 0 mm | - | - | - |
| 1788386084 | 7.78° C | 57% | 1008.5 hPa | 0 mm | - | - | - |
| 1788385484 | 7.78° C | 56% | 1008.7 hPa | 0 mm | - | - | - |
| 1788384916 | 7.78° C | 56% | 1008.6 hPa | 0 mm | - | - | - |
| 1788384884 | 7.78° C | 56% | 1008.6 hPa | 0 mm | - | - | - |
| 1788384284 | 8.33° C | 53% | 1008.5 hPa | 0 mm | - | - | - |
| 1788383684 | 8.33° C | 52% | 1008.4 hPa | 0 mm | - | - | - |
| 1788383084 | 8.33° C | 50% | 1008.3 hPa | 0 mm | - | - | - |
| 1788382526 | 8.89° C | 47% | 1008.4 hPa | 0 mm | - | - | - |
| 1788382484 | 8.89° C | 47% | 1008.4 hPa | 0 mm | - | - | - |
| 1788381884 | 8.89° C | 47% | 1008.4 hPa | 0 mm | - | - | - |
| 1788381284 | 8.89° C | 48% | 1008.5 hPa | 0 mm | - | - | - |
| 1788380684 | 8.89° C | 49% | 1008.4 hPa | 0 mm | - | - | - |
| 1788380084 | 8.33° C | 48% | 1008.3 hPa | 0 mm | - | - | - |
| 1788379484 | 8.89° C | 48% | 1008.4 hPa | 0 mm | - | - | - |
| 1788378884 | 8.89° C | 47% | 1008.3 hPa | 0 mm | - | - | - |
| 1788378284 | 8.89° C | 47% | 1008.1 hPa | 0 mm | - | - | - |
* Rain latest hour (hover to see other rain measurements)
** Current wind speed in m/s (hover to see current wind gust speed)